Time,TemperatureF,DewpointF,PressureIn,WindDirection,WindDirectionDegrees,WindSpeedMPH,WindSpeedGustMPH,Humidity,HourlyPrecipIn,Conditions,Clouds,dailyrainin,SoftwareType,DateUTC
2013-12-24 00:02:00,17.2,9.4,30.34,NW,315,6.8,-999.0,71,-99.99,,,0.00,Acu-Link.com,2013-12-24 05:02:00,
2013-12-24 00:17:00,16.9,8.8,30.34,WNW,292,6.8,-999.0,70,-99.99,,,0.00,Acu-Link.com,2013-12-24 05:17:00,
2013-12-24 00:32:00,16.7,9.0,30.35,NW,315,5.3,-999.0,71,-99.99,,,0.00,Acu-Link.com,2013-12-24 05:32:00,
2013-12-24 00:48:00,15.6,7.9,30.35,WNW,292,5.8,-999.0,71,-99.99,,,0.00,Acu-Link.com,2013-12-24 05:48:00,
2013-12-24 01:03:00,15.3,8.2,30.35,NW,315,6.3,-999.0,73,-99.99,,,0.00,Acu-Link.com,2013-12-24 06:03:00,
2013-12-24 01:18:00,14.9,7.8,30.35,NNW,337,5.3,-999.0,73,-99.99,,,0.00,Acu-Link.com,2013-12-24 06:18:00,
2013-12-24 01:33:00,14.4,7.7,30.35,NNW,337,6.3,-999.0,74,-99.99,,,0.00,Acu-Link.com,2013-12-24 06:33:00,
2013-12-24 01:48:00,14.0,7.3,30.34,NNW,337,6.3,-999.0,74,-99.99,,,0.00,Acu-Link.com,2013-12-24 06:48:00,
2013-12-24 02:03:00,13.8,7.4,30.35,NW,315,5.3,-999.0,75,-99.99,,,0.00,Acu-Link.com,2013-12-24 07:03:00,
2013-12-24 02:18:00,13.8,7.1,30.36,NW,315,5.8,-999.0,74,-99.99,,,0.00,Acu-Link.com,2013-12-24 07:18:00,
2013-12-24 02:33:00,13.6,6.9,30.36,NNW,337,5.8,-999.0,74,-99.99,,,0.00,Acu-Link.com,2013-12-24 07:33:00,
2013-12-24 02:48:00,13.5,7.1,30.37,NNW,337,6.8,-999.0,75,-99.99,,,0.00,Acu-Link.com,2013-12-24 07:48:00,
2013-12-24 03:03:00,12.9,5.9,30.38,WNW,292,6.3,-999.0,73,-99.99,,,0.00,Acu-Link.com,2013-12-24 08:03:00,
2013-12-24 03:18:00,12.7,6.0,30.38,WNW,292,6.8,-999.0,74,-99.99,,,0.00,Acu-Link.com,2013-12-24 08:18:00,
2013-12-24 03:34:00,12.4,5.7,30.39,NW,315,4.2,-999.0,74,-99.99,,,0.00,Acu-Link.com,2013-12-24 08:34:00,
2013-12-24 03:49:00,11.8,5.4,30.39,WNW,292,4.7,-999.0,75,-99.99,,,0.00,Acu-Link.com,2013-12-24 08:49:00,
2013-12-24 04:04:00,11.7,5.3,30.39,WNW,292,7.3,-999.0,75,-99.99,,,0.00,Acu-Link.com,2013-12-24 09:04:00,
2013-12-24 04:19:00,10.8,4.2,30.39,NW,315,6.3,-999.0,74,-99.99,,,0.00,Acu-Link.com,2013-12-24 09:19:00,
2013-12-24 04:34:00,10.2,3.3,30.39,NW,315,7.3,-999.0,73,-99.99,,,0.00,Acu-Link.com,2013-12-24 09:34:00,
2013-12-24 04:49:00,10.2,3.6,30.39,West,270,5.3,-999.0,74,-99.99,,,0.00,Acu-Link.com,2013-12-24 09:49:00,
2013-12-24 05:04:00,10.4,3.8,30.39,WNW,292,7.3,-999.0,74,-99.99,,,0.00,Acu-Link.com,2013-12-24 10:04:00,
2013-12-24 05:19:00,10.4,3.5,30.40,West,270,6.3,-999.0,73,-99.99,,,0.00,Acu-Link.com,2013-12-24 10:19:00,
2013-12-24 05:34:00,10.0,3.4,30.40,WNW,292,5.3,-999.0,74,-99.99,,,0.00,Acu-Link.com,2013-12-24 10:34:00,
2013-12-24 05:50:00,10.0,3.4,30.40,WNW,292,4.7,-999.0,74,-99.99,,,0.00,Acu-Link.com,2013-12-24 10:50:00,
2013-12-24 06:05:00,10.0,3.4,30.41,WNW,292,4.7,-999.0,74,-99.99,,,0.00,Acu-Link.com,2013-12-24 11:05:00,
2013-12-24 06:20:00,10.0,4.0,30.42,WNW,292,4.7,-999.0,76,-99.99,,,0.00,Acu-Link.com,2013-12-24 11:20:00,
2013-12-24 06:35:00,9.9,3.6,30.41,NW,315,5.3,-999.0,75,-99.99,,,0.00,Acu-Link.com,2013-12-24 11:35:00,
2013-12-24 06:50:00,9.5,3.2,30.42,West,270,5.3,-999.0,75,-99.99,,,0.00,Acu-Link.com,2013-12-24 11:50:00,
2013-12-24 07:05:00,9.0,3.0,30.43,WNW,292,5.8,-999.0,76,-99.99,,,0.00,Acu-Link.com,2013-12-24 12:05:00,
2013-12-24 07:21:00,9.1,3.1,30.43,West,270,4.2,-999.0,76,-99.99,,,0.00,Acu-Link.com,2013-12-24 12:21:00,
2013-12-24 07:36:00,9.0,3.0,30.44,WNW,292,5.3,-999.0,76,-99.99,,,0.00,Acu-Link.com,2013-12-24 12:36:00,
2013-12-24 07:51:00,8.6,2.9,30.44,NW,315,6.3,-999.0,77,-99.99,,,0.00,Acu-Link.com,2013-12-24 12:51:00,
2013-12-24 08:06:00,8.1,2.1,30.45,WNW,292,5.3,-999.0,76,-99.99,,,0.00,Acu-Link.com,2013-12-24 13:06:00,
2013-12-24 08:21:00,7.9,1.9,30.46,NW,315,6.3,-999.0,76,-99.99,,,0.00,Acu-Link.com,2013-12-24 13:21:00,
2013-12-24 08:36:00,7.5,1.5,30.45,SW,225,4.2,-999.0,76,-99.99,,,0.00,Acu-Link.com,2013-12-24 13:36:00,
2013-12-24 08:51:00,7.7,1.7,30.46,WNW,292,3.7,-999.0,76,-99.99,,,0.00,Acu-Link.com,2013-12-24 13:51:00,
2013-12-24 09:06:00,8.1,2.1,30.46,NNW,337,3.7,-999.0,76,-99.99,,,0.00,Acu-Link.com,2013-12-24 14:06:00,
2013-12-24 09:21:00,8.4,2.4,30.48,NW,315,5.8,-999.0,76,-99.99,,,0.00,Acu-Link.com,2013-12-24 14:21:00,
2013-12-24 09:37:00,9.0,3.3,30.48,WSW,247,4.7,-999.0,77,-99.99,,,0.00,Acu-Link.com,2013-12-24 14:37:00,
2013-12-24 09:52:00,9.3,3.3,30.48,WNW,292,4.7,-999.0,76,-99.99,,,0.00,Acu-Link.com,2013-12-24 14:52:00,
2013-12-24 10:07:00,9.1,2.8,30.49,WNW,292,3.7,-999.0,75,-99.99,,,0.00,Acu-Link.com,2013-12-24 15:07:00,
2013-12-24 10:22:00,10.0,4.0,30.49,NW,315,5.8,-999.0,76,-99.99,,,0.00,Acu-Link.com,2013-12-24 15:22:00,
2013-12-24 10:37:00,9.7,2.5,30.49,NNE,22,4.7,-999.0,72,-99.99,,,0.00,Acu-Link.com,2013-12-24 15:37:00,
2013-12-24 10:52:00,9.7,2.8,30.50,West,270,4.2,-999.0,73,-99.99,,,0.00,Acu-Link.com,2013-12-24 15:52:00,
2013-12-24 11:08:00,10.6,3.4,30.51,SW,225,4.7,-999.0,72,-99.99,,,0.00,Acu-Link.com,2013-12-24 16:08:00,
2013-12-24 11:23:00,11.3,4.1,30.51,NW,315,5.8,-999.0,72,-99.99,,,0.00,Acu-Link.com,2013-12-24 16:23:00,
2013-12-24 11:38:00,13.3,5.1,30.50,WSW,247,4.7,-999.0,69,-99.99,,,0.00,Acu-Link.com,2013-12-24 16:38:00,
2013-12-24 11:53:00,13.5,4.6,30.50,NNW,337,3.7,-999.0,67,-99.99,,,0.00,Acu-Link.com,2013-12-24 16:53:00,
2013-12-24 12:08:00,14.9,5.3,30.50,NNW,337,4.7,-999.0,65,-99.99,,,0.00,Acu-Link.com,2013-12-24 17:08:00,
2013-12-24 12:24:00,15.3,5.7,30.50,West,270,3.7,-999.0,65,-99.99,,,0.00,Acu-Link.com,2013-12-24 17:24:00,
2013-12-24 12:39:00,16.0,6.0,30.50,SW,225,6.8,-999.0,64,-99.99,,,0.00,Acu-Link.com,2013-12-24 17:39:00,
2013-12-24 12:54:00,16.3,6.3,30.49,WSW,247,4.2,-999.0,64,-99.99,,,0.00,Acu-Link.com,2013-12-24 17:54:00,
2013-12-24 13:09:00,17.1,6.7,30.49,WSW,247,2.7,-999.0,63,-99.99,,,0.00,Acu-Link.com,2013-12-24 18:09:00,
2013-12-24 13:24:00,18.0,7.9,30.48,WSW,247,4.2,-999.0,64,-99.99,,,0.00,Acu-Link.com,2013-12-24 18:24:00,
2013-12-24 13:39:00,18.1,7.7,30.47,SW,225,3.7,-999.0,63,-99.99,,,0.00,Acu-Link.com,2013-12-24 18:39:00,
2013-12-24 13:55:00,19.4,8.2,30.47,NW,315,4.2,-999.0,61,-99.99,,,0.00,Acu-Link.com,2013-12-24 18:55:00,
2013-12-24 14:10:00,19.4,8.2,30.46,NW,315,3.7,-999.0,61,-99.99,,,0.00,Acu-Link.com,2013-12-24 19:10:00,
2013-12-24 14:25:00,20.8,8.8,30.47,SW,225,4.7,-999.0,59,-99.99,,,0.00,Acu-Link.com,2013-12-24 19:25:00,
2013-12-24 14:40:00,22.6,9.7,30.46,NNW,337,3.2,-999.0,57,-99.99,,,0.00,Acu-Link.com,2013-12-24 19:40:00,
2013-12-24 14:56:00,23.2,10.3,30.46,SSW,202,1.7,-999.0,57,-99.99,,,0.00,Acu-Link.com,2013-12-24 19:56:00,
2013-12-24 15:11:00,22.5,10.0,30.45,WNW,292,4.2,-999.0,58,-99.99,,,0.00,Acu-Link.com,2013-12-24 20:11:00,
2013-12-24 15:26:00,21.2,9.1,30.46,SW,225,2.7,-999.0,59,-99.99,,,0.00,Acu-Link.com,2013-12-24 20:26:00,
2013-12-24 15:42:00,21.0,9.3,30.45,SW,225,1.7,-999.0,60,-99.99,,,0.00,Acu-Link.com,2013-12-24 20:42:00,
2013-12-24 15:57:00,21.0,8.6,30.45,WSW,247,0.0,-999.0,58,-99.99,,,0.00,Acu-Link.com,2013-12-24 20:57:00,
2013-12-24 16:12:00,23.9,10.9,30.44,SE,135,0.0,-999.0,57,-99.99,,,0.00,Acu-Link.com,2013-12-24 21:12:00,
2013-12-24 16:27:00,23.9,10.9,30.44,ESE,112,0.0,-999.0,57,-99.99,,,0.00,Acu-Link.com,2013-12-24 21:27:00,
2013-12-24 16:42:00,23.2,10.3,30.44,SSE,157,2.7,-999.0,57,-99.99,,,0.00,Acu-Link.com,2013-12-24 21:42:00,
2013-12-24 16:58:00,23.5,10.5,30.45,SE,135,2.2,-999.0,57,-99.99,,,0.00,Acu-Link.com,2013-12-24 21:58:00,
2013-12-24 17:13:00,23.2,10.6,30.45,NNE,22,0.0,-999.0,58,-99.99,,,0.00,Acu-Link.com,2013-12-24 22:13:00,
2013-12-24 17:28:00,21.0,9.3,30.46,SSW,202,0.0,-999.0,60,-99.99,,,0.00,Acu-Link.com,2013-12-24 22:28:00,
2013-12-24 17:43:00,19.4,8.9,30.46,WNW,292,0.0,-999.0,63,-99.99,,,0.00,Acu-Link.com,2013-12-24 22:43:00,
2013-12-24 17:59:00,17.8,8.7,30.46,NNW,337,0.0,-999.0,67,-99.99,,,0.00,Acu-Link.com,2013-12-24 22:59:00,
2013-12-24 18:14:00,16.9,8.8,30.46,NW,315,0.0,-999.0,70,-99.99,,,0.00,Acu-Link.com,2013-12-24 23:14:00,
2013-12-24 18:29:00,16.0,8.6,30.44,WNW,292,0.0,-999.0,72,-99.99,,,0.00,Acu-Link.com,2013-12-24 23:29:00,
2013-12-24 18:44:00,15.3,8.5,30.44,NNE,22,1.7,-999.0,74,-99.99,,,0.00,Acu-Link.com,2013-12-24 23:44:00,
2013-12-24 19:00:00,15.1,8.3,30.45,South,180,0.0,-999.0,74,-99.99,,,0.00,Acu-Link.com,2013-12-25 00:00:00,
2013-12-24 19:15:00,14.7,8.5,30.45,East,90,2.7,-999.0,76,-99.99,,,0.00,Acu-Link.com,2013-12-25 00:15:00,
2013-12-24 19:30:00,14.5,8.9,30.45,WNW,292,0.0,-999.0,78,-99.99,,,0.00,Acu-Link.com,2013-12-25 00:30:00,
2013-12-24 19:45:00,14.5,9.2,30.45,South,180,0.0,-999.0,79,-99.99,,,0.00,Acu-Link.com,2013-12-25 00:45:00,
2013-12-24 20:00:00,14.4,9.4,30.45,NE,45,0.0,-999.0,80,-99.99,,,0.00,Acu-Link.com,2013-12-25 01:00:00,
2013-12-24 20:16:00,14.2,9.2,30.46,North,0,0.0,-999.0,80,-99.99,,,0.00,Acu-Link.com,2013-12-25 01:16:00,
2013-12-24 20:31:00,14.9,9.6,30.45,NNE,22,0.0,-999.0,79,-99.99,,,0.00,Acu-Link.com,2013-12-25 01:31:00,
2013-12-24 20:46:00,15.4,9.8,30.45,WNW,292,1.1,-999.0,78,-99.99,,,0.00,Acu-Link.com,2013-12-25 01:46:00,
2013-12-24 21:01:00,15.4,9.5,30.46,East,90,1.7,-999.0,77,-99.99,,,0.00,Acu-Link.com,2013-12-25 02:01:00,
2013-12-24 21:17:00,15.8,9.9,30.45,WSW,247,0.0,-999.0,77,-99.99,,,0.00,Acu-Link.com,2013-12-25 02:17:00,
2013-12-24 21:32:00,15.6,10.0,30.44,ESE,112,2.2,-999.0,78,-99.99,,,0.00,Acu-Link.com,2013-12-25 02:32:00,
2013-12-24 21:47:00,15.6,10.0,30.43,SSW,202,2.2,-999.0,78,-99.99,,,0.00,Acu-Link.com,2013-12-25 02:47:00,
2013-12-24 22:03:00,15.6,10.3,30.44,SSE,157,4.2,-999.0,79,-99.99,,,0.00,Acu-Link.com,2013-12-25 03:03:00,
2013-12-24 22:18:00,16.0,10.4,30.43,West,270,1.1,-999.0,78,-99.99,,,0.00,Acu-Link.com,2013-12-25 03:18:00,
2013-12-24 22:33:00,16.5,10.6,30.42,SSW,202,1.1,-999.0,77,-99.99,,,0.00,Acu-Link.com,2013-12-25 03:33:00,
2013-12-24 22:48:00,16.7,10.5,30.42,North,0,0.0,-999.0,76,-99.99,,,0.00,Acu-Link.com,2013-12-25 03:48:00,
2013-12-24 23:03:00,17.1,10.6,30.41,ESE,112,2.2,-999.0,75,-99.99,,,0.00,Acu-Link.com,2013-12-25 04:03:00,
2013-12-24 23:19:00,17.2,10.7,30.40,WSW,247,1.7,-999.0,75,-99.99,,,0.00,Acu-Link.com,2013-12-25 04:19:00,
2013-12-24 23:34:00,17.8,10.9,30.40,SSW,202,2.7,-999.0,74,-99.99,,,0.00,Acu-Link.com,2013-12-25 04:34:00,
2013-12-24 23:49:00,18.1,10.9,30.38,South,180,4.2,-999.0,73,-99.99,,,0.00,Acu-Link.com,2013-12-25 04:49:00,